This is the latest recevied weather packets stored in our database for station/object OE3EMC-13. If no packets are shown the sender has not sent any weather packets the latest 10 day(s).
| Time | Temp. | Humidity | Pressure | Rain* | Wind** | Luminosity | Snow |
|---|---|---|---|---|---|---|---|
| 1777696989 | 2.22° C | 88% | 1100 hPa | 0 mm | - | - | - |
| 1777696389 | 1.67° C | 87% | 1100 hPa | 0 mm | - | - | - |
| 1777695794 | 1.67° C | 87% | 1100 hPa | 0 mm | - | - | - |
| 1777695194 | 1.11° C | 86% | 1100 hPa | 0 mm | - | - | - |
| 1777694594 | 1.11° C | 86% | 1100 hPa | 0 mm | - | - | - |
| 1777693995 | 1.67° C | 86% | 1100 hPa | 0 mm | - | - | - |
| 1777693393 | 1.67° C | 86% | 1100 hPa | 0 mm | - | - | - |
| 1777692794 | 1.67° C | 86% | 1100 hPa | 0 mm | - | - | - |
| 1777692194 | 1.67° C | 86% | 1100 hPa | 0 mm | - | - | - |
| 1777691593 | 1.67° C | 86% | 1100 hPa | 0 mm | - | - | - |
| 1777690993 | 1.67° C | 86% | 1100 hPa | 0 mm | - | - | - |
| 1777690393 | 1.67° C | 85% | 1100 hPa | 0 mm | - | - | - |
| 1777689792 | 1.67° C | 85% | 1100 hPa | 0 mm | - | - | - |
| 1777689194 | 2.22° C | 85% | 1100 hPa | 0 mm | - | - | - |
| 1777688592 | 2.22° C | 85% | 1100 hPa | 0 mm | - | - | - |
| 1777673594 | 3.33° C | 78% | 1100 hPa | 0 mm | - | - | - |
| 1777672994 | 3.33° C | 78% | 1100 hPa | 0 mm | - | - | - |
| 1777672395 | 3.33° C | 78% | 1100 hPa | 0 mm | - | - | - |
| 1777670593 | 3.89° C | 76% | 1100 hPa | 0 mm | - | - | - |
| 1777669993 | 3.89° C | 76% | 1100 hPa | 0 mm | - | - | - |
| 1777668794 | 4.44° C | 77% | 1100 hPa | 0 mm | - | - | - |
| 1777667594 | 5° C | 73% | 1100 hPa | 0 mm | - | - | - |
| 1777666992 | 5° C | 73% | 1100 hPa | 0 mm | - | - | - |
| 1777665792 | 5.56° C | 74% | 1100 hPa | 0 mm | - | - | - |
| 1777664592 | 5.56° C | 72% | 1100 hPa | 0 mm | - | - | - |
* Rain latest hour (hover to see other rain measurements)
** Current wind speed in m/s (hover to see current wind gust speed)